#timestamp,LO_Frequency,Hit,StdDev 
1506506415.1,286047001.1,N
1506506435.9,286046998.9,N
1506506455.7,286046997.9,N
1506506475.5,286046997.1,N
1506506495.3,286046996.5,N
1506506515.2,286047001.2,N
1506506535.0,286046998.6,N
1506506535.9,286046998.6,N
1506506555.7,286046998.5,N
1506506575.6,286046999.2,N
1506506595.4,286047001.0,N
1506506615.2,286047000.1,N
1506506635.1,286047002.3,N
1506506636.0,286047002.3,N
1506506655.8,286047003.9,N
1506506675.6,286047005.2,N
1506506695.5,286047007.6,Y
1506506715.3,286046998.4,P
1506506735.1,286046997.2,P
1506506755.9,286046996.5,N
1506506775.7,286047001.1,N
1506506795.5,286047000.3,N
1506506815.4,286046998.6,N
1506506835.2,286046996.1,N
1506506855.0,286046993.8,Y
1506506855.9,286046993.8,P
1506506875.8,286047001.2,N
1506506895.6,286046998.4,N
1506506915.4,286046996.6,N
1506506935.3,286046998.3,N
1506506955.1,286047001.0,N
1506506956.0,286047001.0,N
1506506975.8,286047000.8,N
1506506995.7,286046999.7,N
1506507015.5,286047000.0,N
1506507035.3,286046999.5,N
1506507055.2,286046995.6,N
1506507075.9,286046996.8,N
1506507095.7,286047002.4,N
1506507115.5,286046996.8,N
1506507135.4,286046996.5,N
1506507155.2,286046997.1,N
1506507175.0,286046995.9,N
1506507175.9,286046995.9,N
1506507195.8,286046992.0,Y
1506507215.6,286046996.9,P
1506507235.4,286046995.1,P
1506507255.3,286047000.5,N
1506507275.1,286047000.9,N
1506507295.8,286046996.7,N
1506507315.7,286046997.4,N
1506507335.5,286046997.5,N
1506507355.3,286046995.1,N
1506507375.2,286047001.1,N
1506507395.9,286046999.2,N
1506507415.7,286046993.9,N
1506507435.6,286046992.0,Y
1506507455.4,286046997.3,P
1506507475.2,286046997.2,P
1506507495.1,286046999.1,P
1506507496.0,286046999.1,N
1506507515.8,286046999.9,N
1506507535.6,286047002.4,N
1506507555.5,286047004.3,N
1506507575.3,286047001.4,N
1506507595.1,286046998.2,N
1506507615.9,286047000.5,N
1506507635.7,286047000.1,N
1506507655.5,286047002.8,N
1506507675.3,286047000.8,N
1506507695.2,286046997.4,N
1506507715.0,286046999.1,N
1506507715.9,286046999.1,N
1506507735.7,286046996.6,N
1506507755.6,286046995.3,N
1506507775.4,286046995.1,N
1506507795.2,286046991.7,Y
1506507815.1,286046994.3,P
1506507816.0,286046994.3,N
1506507835.8,286046993.3,N
1506507855.6,286046994.0,N
1506507875.5,286046997.5,N
1506507895.3,286047000.2,N
1506507915.1,286047000.5,N
1506507935.9,286046999.9,N
1506507955.7,286046998.0,N
1506507975.5,286046995.8,N
1506507995.4,286046993.0,N
1506508015.2,286046993.5,N
1506508035.0,286046997.9,N
1506508035.9,286046997.9,N
1506508055.8,286046995.5,N
1506508075.6,286046995.1,N
1506508095.4,286046995.3,N
1506508115.3,286046994.9,N
1506508135.1,286046995.3,N
1506508136.0,286046995.3,N
1506508155.8,286046997.5,N
1506508175.7,286046994.5,N
1506508195.5,286046995.5,N
1506508215.3,286046992.0,Y
1506508235.2,286046997.0,P
1506508255.9,286046998.4,P
1506508275.7,286047001.2,N
1506508295.6,286046999.6,N
1506508315.4,286046998.2,N
1506508335.2,286047001.6,N
1506508355.0,286046999.8,N
1506508356.0,286046999.8,N
1506508375.8,286047002.3,N
1506508395.6,286047002.7,N
1506508415.4,286047002.5,N
1506508435.3,286046998.3,N
1506508455.1,286046999.3,N
1506508475.8,286047000.6,N
1506508495.7,286047001.4,N
1506508515.5,286047001.7,N
1506508535.3,286047001.5,N
1506508555.2,286047000.2,N
1506508575.9,286047001.9,N
1506508595.7,286047004.4,N
1506508615.6,286047003.7,N
1506508635.4,286047002.2,N
1506508655.2,286047001.9,N
1506508675.1,286047002.1,N
1506508676.0,286047002.1,N
1506508695.8,286047003.8,N
1506508715.6,286046998.6,N
1506508735.5,286047000.9,N
1506508755.3,286046996.9,N
1506508775.1,286046998.8,N
1506508795.8,286046997.2,N
1506508815.7,286046997.8,N
1506508835.5,286046996.3,N
1506508855.3,286046999.2,N
1506508875.2,286046995.7,N
1506508895.9,286046999.4,N
1506508915.7,286046998.4,N
1506508935.6,286046995.6,N
1506508955.4,286046996.1,N
1506508975.2,286046992.5,N
1506508995.1,286046995.2,N
1506508996.0,286046995.2,N
1506509015.8,286046995.4,N
1506509035.6,286046997.9,N
1506509055.5,286046991.7,N
1506509075.3,286046993.2,N
1506509095.1,286046991.6,N
1506509115.9,286046989.6,N
1506509135.7,286046988.3,Y
1506509155.5,286046991.1,P
1506509175.4,286046990.1,N
1506509195.2,286046990.7,N
1506509215.0,286046994.6,N
1506509215.9,286046994.6,N
1506509235.8,286046992.7,N
1506509255.6,286046992.8,N
1506509275.4,286046992.9,N
1506509295.3,286046995.2,N
1506509315.1,286046990.1,Y
1506509316.0,286046990.1,P
1506509335.8,286047000.2,N
1506509355.7,286047000.6,N
1506509375.5,286046999.1,N
1506509395.3,286046996.9,N
1506509415.2,286046996.8,N
1506509435.9,286046997.9,N
1506509455.7,286046997.7,N
1506509475.5,286047000.7,N
1506509495.4,286047001.3,N
1506509515.2,286047002.7,N
1506509535.0,286047001.7,N
1506509535.9,286047001.7,N
1506509555.8,286047000.2,N
1506509575.6,286047003.4,N
1506509595.4,286046999.8,N
1506509615.3,286046996.5,N
1506509635.1,286046998.6,N
1506509636.0,286046998.6,N
1506509655.8,286047000.5,N
1506509675.7,286046997.9,N
1506509695.5,286046997.2,N
1506509715.3,286046999.7,N
1506509735.2,286046998.4,N
1506509755.9,286046999.6,N
1506509775.7,286046999.5,N
1506509795.6,286047002.4,N
1506509815.4,286047000.1,N
1506509835.2,286046997.0,N
1506509855.0,286046995.5,N
1506509855.9,286046995.5,N
1506509875.8,286046993.5,Y
1506509895.6,286046994.0,P
1506509915.5,286046993.7,N
1506509935.3,286046995.9,N
1506509955.1,286046993.3,Y
1506509975.9,286047000.2,P
1506509995.7,286047004.3,N
